"startDT [UTC]","vpos","CH4 [ppm]","stdev(CH4) [ppm]","CO2 [ppm]","stdev(CO2) [ppm]","H2O_reported [%]","stdev(H2O_reported)","CavityPressure [torr]","CavityTemp [C]","OutletValve","CH4_dry [ppm]","CO2_dry [ppm]","DasTemp [C]","EtalonTemp [C]","WarmBoxTemp [C]","MPVPosition","T_ECpre [C]","T_EC1 [C]","T_EC2 [C]","p_inlet [hPa]","p_in [hPa]","p_out [hPa]","T_inlet [C]","RH_inlet [%]","dwpt_inlet [C]","T_vent [C]","RH_vent [%]","dwpt_vent [C]","flow_vent [l min-1]","flow_inlet [l min-1]","dwpt_sample [C]","T_room [C]"
2015-09-21 00:00:00,0.0,1.97058,0.00076,395.577,0.048,0.6083,0.0020,140.002,45.001,31679.43527,1.98263,398.527,36.496,45.068,45.000,0.00,0.09,-272.75,-272.81,-9,516,-945,21.5,18.4,-3.6,21.6,18.7,-3.2,5.73,2.12,-0.7,27.8
2015-09-21 00:01:00,0.0,1.96968,0.00079,395.552,0.046,0.6080,0.0023,139.999,45.001,31680.45752,1.98171,398.500,36.556,45.068,45.000,0.00,0.09,-272.74,-272.81,-10,516,-945,21.5,18.3,-3.6,21.6,18.7,-3.2,5.73,1.95,-0.7,27.9
2015-09-21 00:02:00,0.0,1.96901,0.00068,395.538,0.038,0.6054,0.0021,139.999,45.001,31682.11801,1.98094,398.471,36.603,45.068,45.000,0.00,0.09,-272.74,-272.79,-9,517,-945,21.5,18.2,-3.7,21.6,18.6,-3.3,5.73,1.79,-0.7,27.9
2015-09-21 00:03:00,0.0,1.96854,0.00059,395.526,0.032,0.6040,0.0014,140.002,45.001,31685.28944,1.98047,398.454,36.648,45.068,45.001,0.00,0.09,-272.75,-272.80,-8,516,-945,21.5,18.2,-3.7,21.7,18.5,-3.3,5.73,2.13,-0.7,27.9
2015-09-21 00:04:00,0.0,1.96993,0.00039,395.503,0.031,0.6078,0.0017,139.999,45.001,31686.39091,1.98189,398.447,36.713,45.068,45.001,0.00,0.09,-272.75,-272.81,-9,516,-945,21.5,18.3,-3.6,21.7,18.6,-3.3,5.73,1.92,-0.7,27.9
2015-09-21 00:05:00,0.0,1.97024,0.00074,395.488,0.035,0.6092,0.0019,140.000,45.001,31689.56578,1.98230,398.440,36.754,45.068,45.001,0.00,0.09,-272.74,-272.79,-10,517,-945,21.5,18.4,-3.5,21.7,18.6,-3.2,5.73,1.82,-0.7,27.9
2015-09-21 00:06:00,0.0,1.96941,0.00091,395.445,0.037,0.6108,0.0025,140.002,45.001,31691.34849,1.98152,398.405,36.794,45.068,45.001,0.00,0.09,-272.74,-272.80,-8,517,-945,21.5,18.4,-3.5,21.7,18.7,-3.2,5.73,2.16,-0.7,27.9
2015-09-21 00:07:00,0.0,1.96919,0.00068,395.448,0.029,0.6081,0.0018,140.001,45.001,31691.99190,1.98118,398.395,36.829,45.068,45.001,0.00,0.09,-272.74,-272.81,-9,516,-945,21.6,18.3,-3.6,21.7,18.6,-3.2,5.73,1.83,-0.7,28.0
2015-09-21 00:08:00,0.0,1.96829,0.00045,395.443,0.030,0.6074,0.0030,140.000,45.001,31693.02221,1.98029,398.387,36.873,45.068,45.001,0.00,0.09,-272.74,-272.80,-10,517,-946,21.5,18.2,-3.6,21.7,18.6,-3.2,5.73,1.93,-0.7,28.0
2015-09-21 00:09:00,0.0,1.96836,0.00042,395.440,0.036,0.6071,0.0011,139.998,45.001,31693.14990,1.98032,398.381,36.900,45.068,45.001,0.00,0.09,-272.74,-272.80,-9,517,-946,21.5,18.2,-3.6,21.7,18.5,-3.3,5.73,2.11,-0.7,28.0
2015-09-21 00:10:00,0.0,1.96902,0.00055,395.477,0.042,0.6081,0.0016,140.001,45.001,31695.77203,1.98103,398.424,36.916,45.068,45.000,0.00,0.09,-272.74,-272.81,-8,517,-945,21.6,18.3,-3.5,21.7,18.6,-3.2,5.73,1.76,-0.7,27.9
2015-09-21 00:11:00,0.0,1.96805,0.00054,395.416,0.039,0.6074,0.0015,140.001,45.000,31696.74995,1.98006,398.361,36.874,45.067,45.000,0.00,0.09,-272.75,-272.80,-10,517,-945,21.6,18.3,-3.6,21.7,18.6,-3.2,5.73,2.00,-0.7,27.9
2015-09-21 00:12:00,0.0,1.96799,0.00062,395.367,0.037,0.6080,0.0021,140.000,45.000,31697.37224,1.97998,398.311,36.802,45.067,44.999,0.00,0.09,-272.74,-272.80,-10,517,-945,21.5,18.3,-3.6,21.7,18.6,-3.2,5.73,2.10,-0.7,27.9
2015-09-21 00:13:00,0.0,1.96790,0.00060,395.378,0.037,0.6083,0.0025,139.999,44.999,31696.30994,1.97988,398.326,36.694,45.066,44.998,0.00,0.09,-272.74,-272.80,-9,517,-945,21.5,18.3,-3.6,21.7,18.6,-3.2,5.73,1.89,-0.7,27.9
2015-09-21 00:14:00,0.0,1.96828,0.00073,395.365,0.040,0.6081,0.0016,140.001,44.998,31693.95972,1.98033,398.311,36.538,45.065,44.998,0.00,0.09,-272.75,-272.81,-9,517,-945,21.5,18.4,-3.6,21.6,18.7,-3.3,5.73,1.81,-0.7,27.8
2015-09-21 00:15:00,0.0,1.96700,0.00047,395.342,0.030,0.6072,0.0019,139.998,44.997,31688.69145,1.97898,398.285,36.349,45.065,44.997,0.00,0.09,-272.74,-272.80,-9,517,-944,21.4,18.4,-3.7,21.6,18.7,-3.3,5.73,1.90,-0.7,27.8
2015-09-21 00:16:00,0.0,1.96676,0.00041,395.304,0.035,0.6095,0.0020,140.001,44.997,31685.95527,1.97876,398.256,36.167,45.065,44.997,0.00,0.09,-272.75,-272.80,-9,517,-944,21.3,18.5,-3.6,21.6,18.7,-3.2,5.73,2.03,-0.7,27.7
2015-09-21 00:17:00,0.0,1.96756,0.00060,395.297,0.038,0.6106,0.0022,140.000,44.996,31679.35785,1.97963,398.255,35.999,45.065,44.997,0.00,0.09,-272.75,-272.81,-9,517,-944,21.3,18.6,-3.6,21.5,18.8,-3.2,5.73,2.09,-0.7,27.7
2015-09-21 00:18:00,0.0,1.96686,0.00052,395.228,0.044,0.6100,0.0019,140.000,44.996,31677.15100,1.97886,398.182,35.888,45.066,44.999,0.00,0.09,-272.74,-272.80,-10,517,-944,21.3,18.6,-3.6,21.5,18.8,-3.2,5.73,1.95,-0.7,27.6
2015-09-21 00:19:00,0.0,1.96758,0.00074,395.220,0.038,0.6115,0.0023,139.999,44.997,31672.97122,1.97964,398.182,35.794,45.067,45.000,0.00,0.09,-272.74,-272.80,-10,517,-944,21.2,18.7,-3.5,21.5,18.9,-3.2,5.73,1.80,-0.7,27.5
2015-09-21 00:20:00,0.0,1.96765,0.00057,395.234,0.032,0.6117,0.0023,140.001,44.998,31671.02452,1.97974,398.197,35.727,45.068,45.000,0.00,0.09,-272.74,-272.80,-9,517,-944,21.2,18.7,-3.6,21.4,18.9,-3.2,5.73,1.90,-0.7,27.5
2015-09-21 00:21:00,0.0,1.96802,0.00057,395.269,0.041,0.6102,0.0021,139.999,44.998,31669.71407,1.98006,398.224,35.653,45.068,45.001,0.00,0.09,-272.75,-272.80,-9,516,-944,21.2,18.7,-3.6,21.4,18.9,-3.2,5.73,2.10,-0.7,27.5
2015-09-21 00:22:00,0.0,1.96803,0.00087,395.265,0.047,0.6109,0.0018,140.003,44.999,31669.53487,1.98011,398.225,35.619,45.068,45.001,0.00,0.09,-272.74,-272.81,-9,516,-944,21.2,18.8,-3.5,21.4,19.0,-3.2,5.73,2.03,-0.7,27.5
2015-09-21 00:23:00,0.0,1.96743,0.00047,395.236,0.027,0.6106,0.0023,139.998,44.999,31665.61797,1.97945,398.193,35.598,45.068,45.001,0.00,0.09,-272.74,-272.81,-9,516,-944,21.2,18.8,-3.5,21.4,19.0,-3.2,5.73,1.79,-0.7,27.5
2015-09-21 00:24:00,0.0,1.96690,0.00050,395.223,0.030,0.6101,0.0014,140.000,45.000,31665.74106,1.97895,398.178,35.619,45.069,45.001,0.00,0.09,-272.75,-272.81,-10,516,-944,21.2,18.7,-3.6,21.4,18.9,-3.2,5.73,1.94,-0.7,27.5
2015-09-21 00:25:00,0.0,1.96695,0.00035,395.219,0.042,0.6091,0.0020,140.001,45.000,31667.05274,1.97896,398.169,35.640,45.069,45.001,0.00,0.09,-272.74,-272.80,-9,516,-944,21.2,18.7,-3.6,21.4,18.9,-3.2,5.73,2.14,-0.7,27.5
2015-09-21 00:26:00,0.0,1.96699,0.00057,395.206,0.036,0.6097,0.0016,140.000,45.001,31667.19826,1.97898,398.159,35.690,45.069,45.001,0.00,0.09,-272.74,-272.80,-8,516,-944,21.2,18.7,-3.6,21.5,18.9,-3.2,5.73,1.86,-0.7,27.5
2015-09-21 00:27:00,0.0,1.96641,0.00083,395.231,0.029,0.6083,0.0023,140.000,45.001,31667.57612,1.97846,398.176,35.729,45.069,45.001,0.00,0.09,-272.75,-272.80,-9,516,-944,21.2,18.6,-3.6,21.5,18.9,-3.2,5.73,1.84,-0.7,27.6
2015-09-21 00:28:00,0.0,1.96592,0.00048,395.214,0.030,0.6082,0.0016,140.001,45.001,31668.80914,1.97790,398.159,35.769,45.069,45.001,0.00,0.09,-272.75,-272.80,-10,516,-944,21.3,18.6,-3.5,21.5,18.8,-3.2,5.73,2.14,-0.8,27.6
2015-09-21 00:29:00,0.0,1.96647,0.00069,395.214,0.030,0.6107,0.0021,140.000,45.001,31667.08546,1.97851,398.172,35.842,45.069,45.001,0.00,0.09,-272.74,-272.81,-9,516,-944,21.3,18.7,-3.5,21.5,18.9,-3.2,5.73,1.93,-0.7,27.6
2015-09-21 00:30:00,0.0,1.96618,0.00047,395.185,0.046,0.6102,0.0023,140.000,45.001,31669.38835,1.97826,398.140,35.909,45.069,45.001,0.00,0.09,-272.75,-272.80,-8,516,-944,21.3,18.6,-3.5,21.5,18.9,-3.2,5.73,1.80,-0.7,27.6
2015-09-21 00:31:00,0.0,1.96630,0.00046,395.184,0.030,0.6100,0.0018,140.002,45.001,31672.43788,1.97827,398.137,35.978,45.069,45.001,0.00,0.09,-272.75,-272.80,-10,516,-944,21.3,18.6,-3.6,21.5,18.9,-3.2,5.73,2.12,-0.7,27.7
2015-09-21 00:32:00,0.0,1.96682,0.00042,395.168,0.025,0.6112,0.0016,140.000,45.001,31673.03641,1.97886,398.129,36.062,45.069,45.001,0.00,0.09,-272.73,-272.80,-10,516,-944,21.3,18.7,-3.5,21.5,18.9,-3.2,5.73,1.97,-0.7,27.7
2015-09-21 00:33:00,0.0,1.96679,0.00074,395.217,0.034,0.6105,0.0019,140.001,45.001,31675.87415,1.97882,398.173,36.131,45.068,45.001,0.00,0.09,-272.74,-272.80,-8,516,-945,21.3,18.6,-3.5,21.5,18.9,-3.2,5.73,1.78,-0.7,27.7
2015-09-21 00:34:00,0.0,1.96618,0.00074,395.199,0.031,0.6097,0.0025,140.002,45.001,31678.07542,1.97827,398.152,36.205,45.068,45.001,0.00,0.09,-272.75,-272.80,-8,516,-945,21.3,18.6,-3.5,21.5,18.9,-3.2,5.73,2.11,-0.7,27.7
2015-09-21 00:35:00,0.0,1.96602,0.00056,395.212,0.029,0.6101,0.0021,140.000,45.001,31678.87055,1.97799,398.167,36.279,45.068,45.000,0.00,0.09,-272.74,-272.81,-10,516,-945,21.3,18.6,-3.5,21.5,18.9,-3.2,5.73,1.99,-0.7,27.7
2015-09-21 00:36:00,0.0,1.96616,0.00060,395.208,0.032,0.6110,0.0021,139.997,45.001,31681.77287,1.97823,398.168,36.342,45.068,45.000,0.00,0.09,-272.74,-272.81,-9,516,-945,21.4,18.6,-3.5,21.5,18.9,-3.2,5.73,1.78,-0.7,27.7
2015-09-21 00:37:00,0.0,1.96647,0.00059,395.189,0.033,0.6120,0.0020,140.000,45.001,31682.40780,1.97852,398.152,36.398,45.068,45.000,0.00,0.09,-272.75,-272.81,-8,516,-945,21.4,18.6,-3.5,21.6,18.9,-3.1,5.73,2.12,-0.7,27.8
2015-09-21 00:38:00,0.0,1.96728,0.00062,395.204,0.030,0.6118,0.0024,140.002,45.001,31684.87843,1.97935,398.167,36.473,45.068,45.000,0.00,0.09,-272.74,-272.81,-9,516,-945,21.4,18.6,-3.5,21.6,18.9,-3.1,5.73,1.96,-0.7,27.8
2015-09-21 00:39:00,0.0,1.96752,0.00078,395.263,0.036,0.6114,0.0016,140.002,45.001,31687.09743,1.97954,398.222,36.557,45.068,45.000,0.00,0.10,-272.74,-272.80,-10,516,-945,21.4,18.5,-3.5,21.6,18.9,-3.1,5.73,1.80,-0.7,27.8
2015-09-21 00:40:00,0.0,1.96642,0.00058,395.243,0.029,0.6102,0.0020,140.001,45.001,31689.69033,1.97849,398.199,36.615,45.068,45.000,0.00,0.09,-272.75,-272.80,-8,516,-945,21.4,18.5,-3.5,21.6,18.8,-3.2,5.73,2.15,-0.7,27.8
2015-09-21 00:41:00,0.0,1.96612,0.00063,395.229,0.037,0.6103,0.0017,139.999,45.001,31689.23742,1.97816,398.185,36.656,45.068,45.000,0.00,0.09,-272.75,-272.81,-9,516,-945,21.4,18.5,-3.5,21.6,18.8,-3.2,5.73,1.87,-0.7,27.9
2015-09-21 00:42:00,0.0,1.96711,0.00054,395.251,0.032,0.6105,0.0017,139.999,45.001,31691.84576,1.97916,398.208,36.709,45.068,45.000,0.00,0.09,-272.75,-272.80,-10,516,-945,21.4,18.5,-3.5,21.6,18.8,-3.2,5.73,1.88,-0.7,27.9
2015-09-21 00:43:00,0.0,1.96626,0.00087,395.293,0.034,0.6088,0.0024,140.000,45.001,31692.95343,1.97830,398.241,36.756,45.068,45.001,0.00,0.09,-272.74,-272.80,-9,517,-945,21.5,18.4,-3.5,21.6,18.7,-3.2,5.73,2.14,-0.7,27.9
2015-09-21 00:44:00,0.0,1.96557,0.00091,395.288,0.041,0.6081,0.0018,140.001,45.001,31695.07916,1.97758,398.232,36.810,45.068,45.001,0.00,0.09,-272.74,-272.81,-8,516,-945,21.5,18.3,-3.6,21.7,18.7,-3.2,5.73,1.77,-0.7,27.9
2015-09-21 00:45:00,0.0,1.96522,0.00079,395.308,0.042,0.6066,0.0019,139.999,45.001,31694.49070,1.97718,398.248,36.868,45.068,45.000,0.00,0.09,-272.75,-272.80,-10,517,-946,21.5,18.3,-3.6,21.7,18.6,-3.2,5.73,2.03,-0.7,27.9
2015-09-21 00:46:00,0.0,1.96481,0.00059,395.281,0.036,0.6053,0.0018,140.004,45.001,31699.22489,1.97671,398.213,36.928,45.068,45.001,0.00,0.09,-272.73,-272.80,-9,517,-946,21.5,18.3,-3.6,21.7,18.6,-3.3,5.73,2.03,-0.7,28.0
2015-09-21 00:47:00,0.0,1.96454,0.00034,395.242,0.035,0.6051,0.0024,140.001,45.001,31700.21981,1.97646,398.173,36.966,45.068,45.000,0.00,0.09,-272.74,-272.80,-8,517,-946,21.5,18.2,-3.7,21.7,18.6,-3.3,5.73,1.77,-0.7,28.0
2015-09-21 00:48:00,0.0,1.96519,0.00073,395.242,0.033,0.6053,0.0019,140.000,45.001,31702.22837,1.97706,398.172,36.998,45.068,45.000,0.00,0.09,-272.75,-272.81,-10,517,-946,21.5,18.2,-3.6,21.7,18.6,-3.3,5.73,2.14,-0.7,28.0
2015-09-21 00:49:00,0.0,1.96573,0.00072,395.231,0.047,0.6069,0.0021,140.002,45.001,31705.93314,1.97768,398.167,36.975,45.067,45.000,0.00,0.09,-272.73,-272.80,-9,517,-946,21.5,18.3,-3.6,21.7,18.6,-3.3,5.73,1.88,-0.7,28.0
2015-09-21 00:50:00,0.0,1.96460,0.00068,395.239,0.036,0.6059,0.0022,139.999,45.000,31704.56967,1.97660,398.177,36.916,45.067,44.999,0.00,0.09,-272.74,-272.80,-8,517,-946,21.5,18.3,-3.6,21.7,18.6,-3.3,5.73,1.83,-0.7,28.0
2015-09-21 00:51:00,0.0,1.96549,0.00074,395.199,0.041,0.6070,0.0018,139.999,44.999,31703.58953,1.97741,398.138,36.829,45.066,44.999,0.00,0.09,-272.75,-272.81,-9,517,-946,21.4,18.3,-3.6,21.6,18.6,-3.3,5.73,2.11,-0.7,27.9
2015-09-21 00:52:00,0.0,1.96577,0.00061,395.170,0.032,0.6098,0.0014,139.999,44.998,31701.11931,1.97781,398.123,36.673,45.066,44.998,0.00,0.09,-272.74,-272.80,-9,517,-945,21.4,18.4,-3.6,21.6,18.7,-3.2,5.73,2.02,-0.7,27.8
2015-09-21 00:53:00,0.0,1.96674,0.00077,395.207,0.044,0.6098,0.0019,139.998,44.998,31695.80417,1.97873,398.161,36.479,45.065,44.997,0.00,0.09,-272.73,-272.80,-10,517,-945,21.4,18.5,-3.5,21.6,18.8,-3.2,5.73,1.88,-0.7,27.7
2015-09-21 00:54:00,0.0,1.96707,0.00130,395.218,0.053,0.6101,0.0014,140.000,44.997,31691.15469,1.97914,398.171,36.277,45.064,44.997,0.00,0.09,-272.74,-272.81,-9,517,-945,21.3,18.5,-3.6,21.5,18.8,-3.2,5.73,1.83,-0.7,27.7
2015-09-21 00:55:00,0.0,1.96558,0.00043,395.150,0.025,0.6087,0.0016,139.996,44.996,31684.50434,1.97757,398.097,36.094,45.064,44.997,0.00,0.09,-272.75,-272.80,-9,517,-944,21.3,18.6,-3.6,21.5,18.8,-3.3,5.73,1.89,-0.7,27.7
2015-09-21 00:56:00,0.0,1.96590,0.00086,395.169,0.043,0.6084,0.0023,139.999,44.996,31675.51105,1.97791,398.117,35.947,45.065,44.997,0.00,0.09,-272.75,-272.79,-9,517,-944,21.3,18.6,-3.6,21.5,18.8,-3.3,5.73,2.03,-0.7,27.6
2015-09-21 00:57:00,0.0,1.96507,0.00038,395.136,0.024,0.6080,0.0018,140.002,44.996,31671.98474,1.97706,398.078,35.821,45.065,44.998,0.00,0.09,-272.75,-272.80,-9,517,-944,21.2,18.6,-3.6,21.4,18.8,-3.3,5.73,2.09,-0.7,27.6
2015-09-21 00:58:00,0.0,1.96483,0.00043,395.131,0.035,0.6069,0.0017,140.001,44.997,31667.65307,1.97675,398.070,35.713,45.066,44.999,0.00,0.09,-272.75,-272.81,-9,516,-944,21.2,18.6,-3.6,21.4,18.8,-3.3,5.73,1.95,-0.7,27.5
2015-09-21 00:59:00,0.0,1.96505,0.00068,395.128,0.041,0.6078,0.0023,140.003,44.998,31666.56979,1.97707,398.071,35.633,45.067,45.000,0.00,0.09,-272.74,-272.80,-9,516,-944,21.2,18.7,-3.6,21.4,18.8,-3.3,5.73,1.79,-0.7,27.5
2015-09-21 01:00:00,0.0,1.96508,0.00076,395.108,0.029,0.6094,0.0021,139.998,44.998,31665.58997,1.97703,398.058,35.624,45.068,45.001,0.00,0.09,-272.74,-272.80,-10,516,-944,21.2,18.7,-3.6,21.4,18.9,-3.3,5.73,1.96,-0.7,27.5
2015-09-21 01:01:00,0.0,1.96510,0.00050,395.129,0.035,0.6096,0.0018,140.002,44.999,31664.92808,1.97715,398.082,35.628,45.069,45.001,0.00,0.09,-272.74,-272.81,-9,516,-944,21.2,18.7,-3.6,21.4,18.9,-3.2,5.73,2.13,-0.7,27.5
2015-09-21 01:02:00,0.0,1.96538,0.00054,395.156,0.026,0.6071,0.0020,140.002,45.000,31667.74376,1.97733,398.096,35.678,45.069,45.002,0.00,0.09,-272.73,-272.80,-8,516,-944,21.2,18.6,-3.6,21.4,18.8,-3.3,5.73,1.86,-0.7,27.5
2015-09-21 01:03:00,0.0,1.96546,0.00062,395.157,0.024,0.6064,0.0019,140.004,45.001,31669.78223,1.97739,398.092,35.731,45.069,45.002,0.00,0.09,-272.74,-272.80,-9,516,-944,21.2,18.6,-3.6,21.5,18.8,-3.3,5.73,1.84,-0.7,27.5
2015-09-21 01:04:00,0.0,1.96722,0.00042,395.182,0.028,0.6074,0.0018,140.001,45.001,31671.48573,1.97918,398.124,35.811,45.070,45.002,0.00,0.09,-272.75,-272.81,-10,516,-944,21.2,18.6,-3.6,21.5,18.8,-3.2,5.73,2.14,-0.8,27.6
2015-09-21 01:05:00,0.0,1.96700,0.00113,395.170,0.030,0.6048,0.0020,140.000,45.002,31671.35441,1.97887,398.097,35.896,45.069,45.001,0.00,0.09,-272.74,-272.81,-9,516,-944,21.3,18.5,-3.7,21.5,18.7,-3.3,5.73,1.93,-0.8,27.6
2015-09-21 01:06:00,0.0,1.96782,0.00045,395.182,0.031,0.6064,0.0021,139.998,45.002,31672.54855,1.97982,398.118,35.987,45.069,45.001,0.00,0.10,-272.73,-272.80,-8,516,-944,21.3,18.5,-3.7,21.5,18.8,-3.3,5.73,1.80,-0.7,27.6
2015-09-21 01:07:00,0.0,1.96624,0.00078,395.170,0.042,0.6031,0.0023,139.998,45.002,31672.77395,1.97813,398.092,36.080,45.069,45.001,0.00,0.09,-272.75,-272.80,-9,516,-944,21.3,18.4,-3.7,21.5,18.7,-3.3,5.73,2.12,-0.8,27.6
2015-09-21 01:08:00,0.0,1.96735,0.00056,395.173,0.030,0.6034,0.0019,140.001,45.002,31675.32132,1.97924,398.093,36.153,45.068,45.000,0.00,0.09,-272.74,-272.81,-10,516,-945,21.3,18.4,-3.7,21.5,18.7,-3.4,5.73,1.98,-0.8,27.6
2015-09-21 01:09:00,0.0,1.96714,0.00083,395.174,0.025,0.6028,0.0016,139.999,45.002,31675.25581,1.97900,398.093,36.217,45.068,45.000,0.00,0.09,-272.74,-272.80,-9,516,-945,21.3,18.4,-3.7,21.5,18.6,-3.4,5.73,1.78,-0.7,27.7
2015-09-21 01:10:00,0.0,1.96809,0.00045,395.189,0.036,0.6042,0.0014,139.997,45.002,31675.82278,1.98001,398.115,36.280,45.068,45.000,0.00,0.09,-272.75,-272.80,-8,516,-945,21.3,18.4,-3.7,21.5,18.7,-3.3,5.73,2.11,-0.8,27.7
2015-09-21 01:11:00,0.0,1.96746,0.00125,395.179,0.040,0.6028,0.0018,139.999,45.001,31679.50691,1.97943,398.097,36.350,45.068,45.000,0.00,0.09,-272.75,-272.81,-9,516,-945,21.3,18.3,-3.7,21.5,18.6,-3.3,5.73,1.98,-0.7,27.7
2015-09-21 01:12:00,0.0,1.96745,0.00099,395.205,0.042,0.6022,0.0021,140.001,45.001,31682.60907,1.97926,398.120,36.415,45.068,45.000,0.00,0.09,-272.74,-272.80,-10,516,-945,21.3,18.3,-3.7,21.5,18.6,-3.4,5.73,1.78,-0.7,27.7
2015-09-21 01:13:00,0.0,1.96765,0.00098,395.198,0.035,0.6034,0.0020,139.998,45.001,31683.04995,1.97958,398.119,36.472,45.068,45.000,0.00,0.09,-272.74,-272.80,-9,516,-945,21.4,18.3,-3.7,21.5,18.6,-3.3,5.73,2.12,-0.7,27.8
2015-09-21 01:14:00,0.0,1.96538,0.00078,395.179,0.047,0.6010,0.0021,140.000,45.001,31684.08508,1.97727,398.088,36.517,45.068,45.000,0.00,0.09,-272.74,-272.81,-8,516,-945,21.4,18.2,-3.8,21.6,18.6,-3.4,5.73,1.95,-0.7,27.8
2015-09-21 01:15:00,0.0,1.96586,0.00100,395.184,0.036,0.6022,0.0024,139.998,45.001,31683.91560,1.97777,398.101,36.590,45.068,45.001,0.00,0.09,-272.74,-272.80,-10,516,-945,21.4,18.2,-3.7,21.6,18.5,-3.4,5.73,1.80,-0.8,27.8
2015-09-21 01:16:00,0.0,1.96504,0.00089,395.168,0.056,0.6011,0.0019,140.000,45.001,31686.75083,1.97691,398.078,36.654,45.068,45.000,0.00,0.09,-272.74,-272.80,-9,516,-945,21.4,18.2,-3.8,21.6,18.5,-3.4,5.73,2.15,-0.7,27.8
2015-09-21 01:17:00,0.0,1.96558,0.00062,395.145,0.045,0.6023,0.0029,140.001,45.001,31691.01883,1.97737,398.060,36.713,45.068,45.000,0.00,0.09,-272.74,-272.81,-8,516,-945,21.4,18.2,-3.7,21.6,18.5,-3.4,5.73,1.86,-0.7,27.8
2015-09-21 01:18:00,0.0,1.96529,0.00093,395.100,0.032,0.6002,0.0028,140.000,45.001,31695.06131,1.97714,398.005,36.764,45.068,45.000,0.00,0.09,-272.75,-272.81,-9,516,-946,21.4,18.2,-3.8,21.6,18.5,-3.4,5.73,1.89,-0.7,27.9
2015-09-21 01:19:00,0.0,1.96536,0.00065,395.101,0.044,0.6017,0.0019,140.000,45.001,31697.04271,1.97719,398.011,36.817,45.068,45.000,0.00,0.09,-272.75,-272.80,-9,516,-945,21.4,18.2,-3.7,21.6,18.5,-3.4,5.73,2.14,-0.7,27.9
2015-09-21 01:20:00,0.0,1.96438,0.00094,395.079,0.038,0.6012,0.0021,140.001,45.001,31696.75791,1.97630,397.991,36.873,45.068,45.000,0.00,0.09,-272.74,-272.80,-8,516,-946,21.4,18.1,-3.8,21.6,18.5,-3.4,5.73,1.78,-0.7,27.9
2015-09-21 01:21:00,0.0,1.96488,0.00078,395.088,0.055,0.6020,0.0028,140.000,45.001,31698.66494,1.97666,397.999,36.907,45.068,45.000,0.00,0.09,-272.75,-272.80,-9,516,-946,21.5,18.2,-3.7,21.6,18.5,-3.4,5.73,2.02,-0.7,27.9
2015-09-21 01:22:00,0.0,1.96424,0.00112,395.098,0.051,0.6020,0.0023,139.999,45.001,31700.14542,1.97618,398.015,36.955,45.068,45.000,0.00,0.09,-272.74,-272.81,-10,516,-946,21.5,18.1,-3.7,21.7,18.5,-3.3,5.73,2.04,-0.7,27.9
2015-09-21 01:23:00,0.0,1.96258,0.00038,395.006,0.034,0.5984,0.0017,140.000,45.001,31699.65320,1.97437,397.901,37.000,45.068,45.000,0.00,0.09,-272.74,-272.80,-8,517,-946,21.5,18.0,-3.8,21.7,18.4,-3.4,5.73,1.77,-0.7,28.0
2015-09-21 01:24:00,0.0,1.96249,0.00036,394.975,0.033,0.5985,0.0017,139.999,45.001,31699.94503,1.97427,397.872,37.000,45.068,45.000,0.00,0.09,-272.75,-272.80,-9,516,-946,21.6,18.0,-3.8,21.7,18.3,-3.4,5.73,2.13,-0.7,28.0
2015-09-21 01:25:00,0.0,1.96329,0.00046,394.951,0.035,0.6013,0.0020,140.003,45.001,31702.83994,1.97507,397.860,37.022,45.068,45.001,0.00,0.09,-272.74,-272.81,-10,517,-946,21.5,18.1,-3.7,21.7,18.4,-3.4,5.73,1.88,-0.7,28.0
2015-09-21 01:26:00,0.0,1.96303,0.00099,394.987,0.035,0.6008,0.0021,140.004,45.001,31704.29448,1.97486,397.894,37.063,45.068,45.001,0.00,0.09,-272.74,-272.80,-8,517,-946,21.5,18.0,-3.8,21.7,18.4,-3.4,5.73,1.88,-0.7,28.0
2015-09-21 01:27:00,0.0,1.96290,0.00081,394.963,0.035,0.6009,0.0035,139.999,45.001,31705.73824,1.97472,397.871,37.066,45.068,45.001,0.00,0.09,-272.74,-272.80,-9,517,-946,21.6,18.1,-3.7,21.7,18.4,-3.4,5.73,2.14,-0.7,28.0
2015-09-21 01:28:00,0.0,1.96302,0.00070,394.959,0.030,0.6047,0.0029,140.001,45.001,31708.87582,1.97495,397.886,37.100,45.068,45.001,0.00,0.09,-272.74,-272.81,-10,517,-946,21.6,18.1,-3.7,21.7,18.5,-3.3,5.73,1.76,-0.7,28.1
2015-09-21 01:29:00,0.0,1.96651,0.00202,395.048,0.050,0.6070,0.0031,140.000,45.001,31709.68087,1.97822,397.981,37.113,45.068,45.001,0.00,0.09,-272.74,-272.80,-9,517,-946,21.6,18.2,-3.6,21.7,18.5,-3.3,5.73,2.06,-0.7,28.1
2015-09-21 01:30:00,0.0,1.96978,0.00113,395.134,0.051,0.6115,0.0018,139.999,45.000,31710.03891,1.98193,398.096,37.067,45.068,45.000,0.00,0.09,-272.73,-272.80,-8,517,-946,21.6,18.3,-3.5,21.7,18.6,-3.2,5.73,2.01,-0.7,28.0
2015-09-21 01:31:00,0.0,1.97334,0.00364,395.185,0.059,0.6096,0.0026,140.003,45.000,31709.81035,1.98517,398.134,37.029,45.067,44.999,0.00,0.09,-272.74,-272.81,-10,517,-946,21.5,18.3,-3.6,21.7,18.6,-3.2,5.73,1.77,-0.7,28.0
2015-09-21 01:32:00,0.0,1.98206,0.00332,395.284,0.074,0.6138,0.0031,140.000,44.999,31708.92715,1.99397,398.255,36.931,45.066,44.999,0.00,0.09,-272.75,-272.80,-10,517,-946,21.5,18.5,-3.5,21.7,18.7,-3.2,5.73,2.01,-0.7,28.0
2015-09-21 01:33:00,0.0,1.98179,0.00833,395.259,0.125,0.6112,0.0036,139.999,44.998,31706.75016,1.99376,398.217,36.774,45.065,44.998,0.00,0.09,-272.75,-272.80,-9,517,-945,21.4,18.5,-3.5,21.6,18.8,-3.2,5.73,2.09,-0.7,27.9
2015-09-21 01:34:00,0.0,1.98936,0.00633,395.379,0.080,0.6120,0.0036,140.002,44.997,31701.21936,2.00148,398.342,36.570,45.065,44.997,0.00,0.09,-272.74,-272.80,-9,517,-945,21.4,18.5,-3.5,21.6,18.8,-3.2,5.73,1.97,-0.7,27.8
2015-09-21 01:35:00,0.0,1.97785,0.00573,395.206,0.090,0.6075,0.0030,140.000,44.996,31694.59045,1.99002,398.151,36.342,45.064,44.996,0.00,0.09,-272.74,-272.81,-9,517,-945,21.4,18.5,-3.6,21.6,18.7,-3.2,5.73,1.86,-0.7,27.8
2015-09-21 01:36:00,0.0,1.98801,0.00737,395.344,0.114,0.6137,0.0036,139.998,44.996,31685.74346,1.99998,398.314,36.127,45.064,44.997,0.00,0.09,-272.74,-272.80,-9,517,-944,21.3,18.7,-3.5,21.5,18.8,-3.2,5.73,1.83,-0.7,27.7
2015-09-21 01:37:00,0.0,1.98708,0.00345,395.363,0.065,0.6134,0.0021,140.003,44.996,31681.65142,1.99957,398.337,35.932,45.064,44.997,0.00,0.09,-272.74,-272.79,-9,517,-944,21.3,18.7,-3.5,21.5,18.9,-3.1,5.73,1.92,-0.7,27.7
2015-09-21 01:38:00,0.0,1.98404,0.00219,395.328,0.049,0.6120,0.0017,140.001,44.996,31673.79661,1.99625,398.294,35.789,45.065,44.998,0.00,0.09,-272.75,-272.80,-10,517,-944,21.2,18.7,-3.5,21.4,18.9,-3.2,5.73,2.06,-0.7,27.6
2015-09-21 01:39:00,0.0,1.98864,0.00159,395.401,0.039,0.6172,0.0012,139.998,44.997,31669.56423,2.00080,398.389,35.701,45.066,44.999,0.00,0.09,-272.74,-272.80,-10,516,-944,21.2,18.9,-3.4,21.5,19.0,-3.1,5.73,2.08,-0.7,27.5
2015-09-21 01:40:00,0.0,1.98545,0.00345,395.328,0.074,0.6163,0.0026,140.001,44.998,31667.99601,1.99817,398.320,35.655,45.068,45.001,0.00,0.09,-272.73,-272.80,-9,517,-944,21.2,18.8,-3.4,21.4,19.1,-3.1,5.73,1.85,-0.7,27.5
2015-09-21 01:41:00,0.0,1.98917,0.00622,395.391,0.097,0.6171,0.0045,139.997,44.998,31664.66214,2.00084,398.375,35.638,45.068,45.001,0.00,0.09,-272.74,-272.80,-9,516,-944,21.2,18.9,-3.4,21.5,19.1,-3.1,5.73,1.83,-0.7,27.6
2015-09-21 01:42:00,0.0,1.99610,0.00501,395.542,0.105,0.6183,0.0021,140.001,45.000,31665.59345,2.00856,398.540,35.689,45.069,45.002,0.00,0.09,-272.75,-272.81,-9,516,-944,21.3,18.9,-3.3,21.5,19.2,-3.0,5.73,2.12,-0.7,27.6
2015-09-21 01:43:00,0.0,1.99415,0.00557,395.431,0.111,0.6214,0.0027,140.000,45.000,31666.48598,2.00705,398.448,35.730,45.070,45.002,0.00,0.09,-272.74,-272.81,-10,516,-944,21.3,19.0,-3.3,21.5,19.2,-3.0,5.73,1.98,-0.7,27.6
2015-09-21 01:44:00,0.0,1.98040,0.00429,395.190,0.069,0.6158,0.0026,140.002,45.001,31668.74693,1.99280,398.176,35.796,45.070,45.002,0.00,0.09,-272.74,-272.80,-9,516,-944,21.3,18.8,-3.4,21.5,19.1,-3.1,5.73,1.78,-0.7,27.6
2015-09-21 01:45:00,0.0,1.97665,0.00268,395.009,0.069,0.6160,0.0036,140.001,45.001,31670.44884,1.98912,397.994,35.875,45.069,45.002,0.00,0.09,-272.75,-272.81,-8,516,-944,21.3,18.8,-3.4,21.5,19.0,-3.1,5.73,2.07,-0.7,27.6